Location: Newark
(45.8667°N, 9.7333°E)
Time: 19:21:54
(UTC+00:00)

Vanguard 3 - Pass Details

Date: 26 January 2020
Orbit: 508 x 3263 km, 33.3° (Epoch: 23 February)

Event Time Altitude Azimuth Distance (km) Brightness Sun altitude
Rises 23:38:11 0° 274° (W) 6,329 11.7 -62.8°
Enters shadow 23:40:21 - 269° (W) 5,860 11.5 -62.7°
Reaches altitude 10° 23:48:27 10° 240° (WSW) 4,372 - -62.6°
Maximum altitude 23:49:41 10° 234° (SW) 4,224 - -62.6°
Drops below altitude 10° 23:50:52 10° 227° (SW) 4,112 - -62.5°
Sets 23:58:01 0° 188° (S) 4,257 - -62.3°
